Regional Weather Roundup
Issued by NWS

Home | Current Version | Previous Version | Text Only | Print | Product List | Glossary On
Versions: 1 2 3 4 5 6 7 8 9 10 11 12 13 14 15 16 17 18 19 20 21 22 23 24 25 26 27 28 29 30 31 32 33 34 35 36 37 38 39 40 41 42 43 44 45 46 47 48 49 50
585
ASUS46 KLOX 241913
RWRCA

SOUTHERN CALIFORNIA WEATHER ROUNDUP
NATIONAL WEATHER SERVICE OXNARD CALIFORNIA
1200 PM PDT TUE MAY 24 2016

NOTE: "FAIR" INDICATES FEW OR NO CLOUDS BELOW 12,000 FEET WITH NO
SIGNIFICANT WEATHER AND/OR OBSTRUCTIONS TO VISIBILITY.

  -  STATIONS PRECEEDED BY AN ASTERISK (*) ARE NOT NWS OR FAA
     STATIONS AND ARE NOT SUBJECT TO NWS AND FAA QUALITY CONTROL.

CAZ041-042-087-242000-
LA AND ORANGE COUNTY COASTAL AREAS


CITY           SKY/WX    TMP DP  RH WIND       PRES   REMARKS
L.A. DOWNTOWN  PTSUNNY   68  52  56 VRB3      30.00R
L.A. AIRPORT   PTSUNNY   66  50  56 SW12      30.02R
LONG BEACH     MOSUNNY   68  48  48 S9        30.02R

CITY           SKY/WX    TMP DP  RH WIND       PRES   REMARKS
AVALON           N/A     64 N/A N/A S3G9        N/A
FULLERTON      MOSUNNY   72  47  40 MISG      30.00R
*GETTY CENTER    N/A     64  50  59 S9          N/A
HAWTHORNE      MOSUNNY   65  50  58 SW8       30.02R
*LEO CARRILLO    N/A     65  54  68 SW7         N/A
*LOS ALAMITOS  MOSUNNY   69  50  50 S12G18    30.01R
*REDONDO BEACH   N/A     67  54  61 SW3       30.02R
SANTA ANA      MOSUNNY   66  49  54 SW10      30.01R
STA MONICA APT MOSUNNY   65  50  58 SW9       30.02R
*STA MON PIER    N/A     60  54  80 W10       29.96R
TORRANCE       MOSUNNY   66  55  68 W12       30.03R
*UCLA            N/A     64  46  52 S7        29.99R

$$

CAZ547-548-048-242000-
LA COUNTY VALLEYS AND INLAND EMPIRE


CITY           SKY/WX    TMP DP  RH WIND       PRES   REMARKS
BURBANK        CLOUDY    63  49  60 S9        30.00R
VAN NUYS       CLOUDY    64  48  56 MISG      30.00R

CITY           SKY/WX    TMP DP  RH WIND       PRES   REMARKS
CORONA AIRPORT MOCLDY    69  48  47 VRB3      30.00S
*CHATSWORTH      N/A     65  50  56 S3        30.02R
CHINO          PTSUNNY   70  48  45 W8        30.01S
*CLAREMONT       N/A     62  47  58 SW3         N/A
MARCH AFB      PTSUNNY   66  44  46 SW6       30.00S
*NORTHRIDGE      N/A     64  46  52 SE2         N/A
ONTARIO        CLOUDY    65  46  50 SW7       30.00S
*PASADENA        N/A     63  52  67 CALM        N/A
POMONA         CLOUDY    63  48  59 MISG      30.04R
RIVERSIDE      PTSUNNY   69  44  40 CALM      30.00S
SAN BERNARDINO PTSUNNY   68  43  40 W5        30.00S
*SAN GABRIEL     N/A     65  52  63 SE1       30.08S
*SAN RAFAEL HI   N/A     59  51  74 E3          N/A
*SAUGUS          N/A     58  47  67 S10         N/A
*WHITEMAN AP   CLOUDY    63  48  59 SE6       30.04R
*WHITTIER HILL   N/A     64  50  59 S3          N/A
*WOODLAND HILL   N/A     63  48  59 SE2         N/A

$$

CAZ054-055-242000-
LA AND SAN BERNARDINO COUNTY MOUNTAINS


CITY           SKY/WX    TMP DP  RH WIND       PRES   REMARKS
*ACTON           N/A     63  43  48 W9G21       N/A
*BIG BEAR AIRP CLEAR     48  30  49 W8        30.03R
*BIG PINES       N/A     47  37  69 SW2         N/A
*CHILAO          N/A     48  40  73 S7          N/A
SANDBERG       CLOUDY    53  42  66 S16       30.03R
*WARM SPRINGS    N/A     52  37  57 CALM        N/A

$$

CAZ028-029-059-060-099-242000-
ANTELOPE VALLEY AND SURROUNDING AREAS


CITY           SKY/WX    TMP DP  RH WIND       PRES   REMARKS
LANCASTER      SUNNY     65  42  43 SW26G40   29.95S
PALMDALE       SUNNY     64  39  39 W18G29    29.96S
*POPPY PARK      N/A     63  44  49 SW24        N/A

CITY           SKY/WX    TMP DP  RH WIND       PRES   REMARKS
29 PALMS       MOSUNNY   73  34  23 VRB7      29.97S
BARSTOW/DAGGET PTSUNNY   72  37  28 SW21G30   29.90R
BISHOP         MOSUNNY   69  29  22 VRB7      29.86S
CHINA LAKE     MOSUNNY   73  33  23 VRB3      29.86R
EDWARDS AFB    MOSUNNY   68  40  35 SW22G30   29.91S
MOJAVE         SUNNY     66  37  34 W17G26    29.93S
NEEDLES        SUNNY     83  30  14 SW10G20   29.84S
VICTORVILLE    PTSUNNY   64  37  36 SW12G18   29.96R

$$

CAZ039-040-242000-
VENTURA AND SANTA BARBARA COUNTY COAST


CITY           SKY/WX    TMP DP  RH WIND       PRES   REMARKS
CAMARILLO      SUNNY     68  49  50 SW9       30.01R
NWS OXNARD       N/A     69  52  55 SW6       30.01R
OXNARD AIRPORT MOSUNNY   65  53  65 W12       30.02R
*POINT MUGU    MOSUNNY   66  54  65 W12       30.03R
SBA APT/GOLETA SUNNY     66  51  58 W10       30.02R
*SANTA BARBARA   N/A     69  50  49 CALM      30.09S
*VENTURA         N/A     67  54  63 SW3       30.00R

$$

CAZ044-045-242000-
VENTURA COUNTY VALLEYS


CITY           SKY/WX    TMP DP  RH WIND       PRES   REMARKS
*SIMI VALLEY     N/A     64  51  61 CALM      29.98R
*WESTLAKE VILL   N/A     63  50  61 CALM      30.00S
*OJAI            N/A     63  51  66 CALM      29.97R
*FILLMORE        N/A     67  53  61 CALM      29.90S

$$

CAZ053-242000-
VENTURA COUNTY MOUNTAINS


CITY           SKY/WX    TMP DP  RH WIND       PRES   REMARKS
*LOCKWOOD VLY    N/A     59  30  33 MISG        N/A
*ROSE VALLEY     N/A     55  50  82 MISG        N/A

$$

CAZ034-035-036-242000-
CENTRAL COAST AND SANTA YNEZ VALLEY


CITY           SKY/WX    TMP DP  RH WIND       PRES   REMARKS
SAN LUIS OBISP CLOUDY    63  51  65 W8        30.03R
SANTA MARIA    PTSUNNY   63  51  65 W8        30.03R

CITY           SKY/WX    TMP DP  RH WIND       PRES   REMARKS
*CAL POLY SLO    N/A     63  54  72 S6          N/A
*LOMPOC        CLOUDY    63  51  65 W10       30.03S
*PISMO BEACH     N/A     58  55  89 W7        30.04S
*SANTA YNEZ    PTSUNNY   66  46  48 W8        30.01S

$$

CAZ037-038-051-242000-
SAN LUIS OBISPO COUNTY INTERIOR AND CUYAMA VALLEY


CITY           SKY/WX    TMP DP  RH WIND       PRES   REMARKS
*CUYAMA          N/A     64  43  45 W6        29.91R
PASO ROBLES    CLOUDY    64  47  53 MISG      29.99S

$$

CAZ032-033-061-242000-
SOUTHERN DESERTS


CITY           SKY/WX    TMP DP  RH WIND       PRES   REMARKS
BLYTHE         SUNNY     80  38  22 S14G21    29.87S
IMPERIAL       SUNNY     79  39  23 W9        29.90S
PALM SPRINGS   MOSUNNY   78  39  24 N12G22    29.90S
THERMAL        SUNNY     81  37  20 N8        29.87S

$$

ELSEWHERE ACROSS THE WESTERN UNITED STATES AND MEXICO


CITY           SKY/WX    TMP DP  RH WIND       PRES   REMARKS
DEATH VALLEY,    N/A     84  38  18 SW2         N/A
DENVER, CO     PTSUNNY   70  47  43 SE10G23   29.90F
GRAND CANYON,  MOSUNNY   64  23  21 SW26G41   30.01F
HONOLULU, HI   MOSUNNY   81  64  57 NE13      30.08R
KAHULUI, MAUI  MOSUNNY   81  64  57 NE10      30.07S
LAKE TAHOE, CA RAIN      42  37  82 S3        29.99R
LAS VEGAS, NV  MOSUNNY   74  30  19 S20G31    29.79R
MAMMOTH LAKES, CLOUDY    49  23  36 N8        29.96R
MEXICO CITY, M MOSUNNY   79  45  29 N8        30.37F
PHOENIX, AZ    SUNNY     84  30  14 SE8       29.88S
PORTLAND, OR   MOSUNNY   66  48  52 VRB5      29.99S
RENO, NV       PTSUNNY   60  36  40 N17       29.92R
SALT LAKE CITY PTSUNNY   64  37  36 NW20G32   29.81R
SAN DIEGO, CA  LGT RAIN  65  54  67 SW12      30.06R
SAN FRANCISCO, PTSUNNY   62  52  69 W18       30.00S
SAN JOSE, CA   PTSUNNY   66  49  54 NW7       29.99R
SEATTLE, WA    CLOUDY    59  51  75 VRB3      30.00S
TIJUANA, MEX   PTSUNNY   66  45  45 W13       30.07R

$$

STATION/POSITION TIME  TEMP    WIND        PRES    VSBY  WAVE
                       AIR SEA DIR/SP/G                  HT/PER
                 (UTC) (F)     (DEG/KT/KT) (MB)    (MI)  (FT/S)
POINT ARGUELLO B NOT AVBL
WEST SANTA BARBA 1850   56 56  290/  8/ 10 1016.7R         3/15
POINT CONCEPTION NOT AVBL
EAST SANTA BARBA 1800   57 59  270/ 10/ 12 1016.9R
SANTA MONICA BAY 1850   59 64  290/  4/  8 1017.2R         3/ 5



USA.gov is the U.S. government's official web portal to all federal, state and local government web resources and services.